Weather History for Russell, KS

Change the Weather History Date:

Saturday, February 23, 2013

  Actual Average Record
Temperature  
Mean Temperature 18 °F -  
Max Temperature 34 °F 47 °F 76 °F (1958)
Min Temperature 3 °F 24 °F 0 °F (1965)
Degree Days  
Heating Degree Days 46    
Moisture  
Dew Point 15 °F    
Average Humidity 87    
Maximum Humidity 92    
Minimum Humidity 75    
Precipitation  
Precipitation 0.00 in - - ()
Sea Level Pressure  
Sea Level Pressure 29.97 in    
Wind  
Wind Speed 10 mph (SSW)    
Max Wind Speed 16 mph    
Max Gust Speed -    
Visibility 7 miles    
Events      
Averages and records for this station are not official NWS values.
T = Trace of Precipitation, MM = Missing Value Source: NWS Daily Summary

Daily Weather History Graph

Daily Weather History Graph

Search for Another Location

Airport:

Trip Planner

Search our weather history database for the weather conditions in past years. The results will help you decide how hot, cold, wet, or windy it might be!

Date:

Astronomy

Feb. 23, 2013 Rise Set
Actual Time 7:15 AM CST 6:21 PM CST
Civil Twilight 6:48 AM CST 6:48 PM CST
Nautical Twilight 6:17 AM CST 7:19 PM CST
Astronomical Twilight 5:47 AM CST 7:50 PM CST
Moon 4:34 PM CST 5:38 AM CST
Length of Visible Light 12h 00m
Length of Day
11h 06m
Waxing Gibbous, 95% of the Moon is Illuminated
Feb 23
Waxing Gibbous
Feb 25
Full
Mar 4
Last Quarter
Mar 11
New
Mar 19
First Quarter

Hourly Weather History & Observations

Time (CST) Temp. Windchill Dew Point Humidity Pressure Visibility Wind Dir Wind Speed Gust Speed Precip Events Conditions
12:53 AM 3.9 °F -9.4 °F 1.9 °F 91% 30.11 in 10.0 mi SSW 8.1 mph - N/A   Clear
1:53 AM 6.1 °F -8.7 °F 3.9 °F 91% 30.09 in 10.0 mi SW 10.4 mph - N/A   Clear
2:53 AM 3.2 °F -13.1 °F 1.4 °F 92% 29.97 in 10.0 mi SSW 11.5 mph - N/A   Clear
3:53 AM 7.0 °F -6.6 °F 5.0 °F 92% 30.04 in 9.0 mi SW 9.2 mph - N/A   Clear
4:53 AM 8.1 °F -6.2 °F 5.0 °F 87% 30.03 in 7.0 mi WSW 10.4 mph - N/A   Clear
5:53 AM 5.0 °F -9.1 °F 1.9 °F 87% 30.02 in 8.0 mi SSW 9.2 mph - N/A   Clear
6:53 AM 3.9 °F -11.3 °F 1.9 °F 91% 30.03 in 7.0 mi SW 10.4 mph - N/A   Clear
7:53 AM 6.1 °F -8.7 °F 3.0 °F 87% 30.03 in 5.0 mi SW 10.4 mph - N/A   Clear
8:53 AM 8.1 °F -6.2 °F 6.1 °F 92% 30.03 in 6.0 mi SW 10.4 mph - N/A   Clear
9:53 AM 12.0 °F 0.5 °F 9.0 °F 88% 30.03 in 6.0 mi SW 8.1 mph - N/A   Clear
10:53 AM 16.0 °F 4.4 °F 12.0 °F 84% 30.02 in 7.0 mi SSW 9.2 mph - 0.00 in   Clear
11:53 AM 21.0 °F - 17.1 °F 85% 30.00 in 8.0 mi North - - 0.00 in   Clear
12:53 PM 28.0 °F 16.1 °F 23.0 °F 81% 29.98 in 8.0 mi SSW 16.1 mph - N/A   Clear
1:53 PM 30.9 °F 22.8 °F 26.1 °F 82% 29.94 in 8.0 mi South 9.2 mph - N/A   Clear
2:53 PM 33.1 °F - 26.1 °F 75% 29.92 in 8.0 mi North - - N/A   Clear
3:53 PM 34.0 °F 28.8 °F 27.0 °F 75% 29.89 in 7.0 mi South 5.8 mph - N/A   Clear
4:53 PM 34.0 °F 27.2 °F 28.0 °F 79% 29.89 in 7.0 mi South 8.1 mph - N/A   Clear
5:53 PM 30.0 °F - 25.0 °F 82% 29.89 in 6.0 mi North - - N/A   Haze
6:53 PM 28.0 °F 18.1 °F 24.1 °F 85% 29.90 in 8.0 mi South 11.5 mph - N/A   Clear
7:53 PM 27.0 °F 16.7 °F 24.1 °F 89% 29.91 in 7.0 mi South 11.5 mph - N/A   Clear
8:53 PM 23.0 °F 13.9 °F 21.0 °F 92% 29.92 in 6.0 mi South 8.1 mph - N/A   Clear
9:53 PM 23.0 °F 11.7 °F 19.9 °F 88% 29.93 in 5.0 mi South 11.5 mph - N/A   Clear
10:53 PM 21.0 °F 8.6 °F 19.0 °F 92% 29.91 in 5.0 mi South 12.7 mph - N/A   Clear
11:53 PM 21.9 °F 9.2 °F 19.0 °F 89% 29.89 in 6.0 mi SSE 13.8 mph - N/A   Clear